This demonstration page uses our WeatherBlox Daily Observations layout. Learn more.

Left ArrowRight Arrow

Hourly Observations for February 11, 2020

Temp ( °F °C ) Dew Point ( °F °C ) Humidity (%) Winds ( mph kmh ) Pressure ( in mb ) Visibility ( mi km ) Precip ( " mm )
12:56 am 00:56 Mostly Clear 28 -2.2 21 -6.1 75 75 NW 8 13 30.34 1027 10 16 0.00 0.00
1:56 am 01:56 Mostly Cloudy 28 -2.2 19 -7.2 69 69 NNW 6 9 30.33 1027 10 16 0.00 0.00
2:56 am 02:56 Mostly Clear 26 -3.3 18 -7.8 71 71 NW 6 9 30.33 1027 10 16 0.00 0.00
3:56 am 03:56 Clear 25 -3.9 18 -7.8 75 75 WNW 7 11 30.33 1027 10 16 0.00 0.00
4:56 am 04:56 Clear 22 -5.6 16 -8.9 78 78 WNW 8 13 30.33 1027 10 16 0.00 0.00
5:56 am 05:56 Clear 21 -6.1 15 -9.4 78 78 W 5 7 30.34 1027 10 16 0.00 0.00
6:56 am 06:56 Clear 20 -6.7 15 -9.4 81 81 WNW 8 13 30.33 1027 10 16 0.00 0.00
7:56 am 07:56 Sunny 22 -5.6 15 -9.4 75 75 W 7 11 30.35 1028 10 16 0.00 0.00
8:56 am 08:56 Sunny 24 -4.4 16 -8.9 71 71 undefined N/A 30.36 1028 10 16 0.00 0.00
9:56 am 09:56 Sunny 29 -1.7 19 -7.2 66 66 WSW 12 19 30.35 1028 10 16 0.00 0.00
10:56 am 10:56 Sunny 34 1.1 19 -7.2 54 54 WSW 14 22 30.32 1027 10 16 0.00 0.00
11:56 am 11:56 Sunny 36 2.2 17 -8.3 46 46 WSW 16 26 30.29 1026 10 16 0.00 0.00
12:56 pm 12:56 Sunny 40 4.4 16 -8.9 38 38 WSW 15 24 30.23 1024 10 16 0.00 0.00
1:56 pm 13:56 Sunny 42 5.6 14 -10 32 32 WSW 15 24 30.18 1022 10 16 0.00 0.00
2:56 pm 14:56 Sunny 42 5.6 13 -10.6 30 30 SW 16 26 30.14 1021 10 16 0.00 0.00
3:56 pm 15:56 Sunny 43 6.1 15 -9.4 32 32 SW 17 28 30.10 1019 10 16 0.00 0.00
4:56 pm 16:56 Sunny 43 6.1 16 -8.9 34 34 SW 18 30 30.08 1019 10 16 0.00 0.00
5:56 pm 17:56 Sunny 39 3.9 16 -8.9 39 39 SSW 13 20 30.06 1018 10 16 0.00 0.00
6:56 pm 18:56 Clear 33 0.6 18 -7.8 54 54 S 13 20 30.05 1018 10 16 0.00 0.00
7:56 pm 19:56 Clear 33 0.6 19 -7.2 56 56 SSW 14 22 30.04 1017 10 16 0.00 0.00
8:56 pm 20:56 Clear 33 0.6 19 -7.2 56 56 SSW 15 24 30.03 1017 10 16 0.00 0.00
9:56 pm 21:56 Clear 30 -1.1 21 -6.1 69 69 SSW 14 22 30.02 1017 10 16 0.00 0.00
10:56 pm 22:56 Clear 30 -1.1 23 -5 75 75 SW 16 26 30.00 1016 10 16 0.00 0.00
11:56 pm 23:56 Clear 31 -0.6 25 -3.9 79 79 SW 13 20 29.98 1015 10 16 0.00 0.00

Powered by AerisWeather